Boonville, MO

5:47 PM CST on February 13, 2016 (GMT -0600)
Viertel Memorial

Weather History for KVER - March, 2014

Change the Weather History Date:

Friday, March 21, 2014

  Actual Average Record
Temperature  
Mean Temperature 58 °F -  
Max Temperature 98 °F 55 °F 98 °F (2014)
Min Temperature 44 °F 34 °F 15 °F (1960)
Degree Days  
Heating Degree Days 6    
Growing Degree Days 8 (Base 50)    
Moisture  
Dew Point 28 °F    
Average Humidity 34    
Maximum Humidity 52    
Minimum Humidity 18    
Precipitation  
Precipitation 0.00 in - - ()
Sea Level Pressure  
Sea Level Pressure 29.86 in    
Wind  
Wind Speed 8 mph (WSW)    
Max Wind Speed 18 mph    
Max Gust Speed 26 mph    
Visibility 10 miles    
Events      
Averages and records for this station are not official NWS values.
T = Trace of Precipitation, MM = Missing Value Source: NWS Daily Summary

Daily Weather History Graph

Daily Weather History Graph

Search for Another Location

Airport or City:

Trip Planner

Search our weather history database for the weather conditions in past years. The results will help you decide how hot, cold, wet, or windy it might be!

Date:

Astronomy

Mar. 21, 2014 Rise Set
Actual Time 7:12 AM CDT 7:23 PM CDT
Civil Twilight 6:45 AM CDT 7:50 PM CDT
Nautical Twilight 6:14 AM CDT 8:21 PM CDT
Astronomical Twilight 5:43 AM CDT 8:53 PM CDT
Moon No Moon Rise 10:07 AM CDT (3/21)
Length of Visible Light 13h 04m
Length of Day
12h 11m
Waning Gibbous, 75% of the Moon is Illuminated
Mar 21
Waning Gibbous
Mar 23
Last Quarter
Mar 30
New
Apr 7
First Quarter
Apr 15
Full

Hourly Weather History & Observations

Time (CDT) Temp. Windchill Dew Point Humidity Pressure Visibility Wind Dir Wind Speed Gust Speed Precip Events Conditions
12:15 AM 54.0 °F - 22.8 °F 30% 29.87 in 10.0 mi SSW 6.9 mph - N/A   Clear
12:35 AM 54.3 °F - 23.0 °F 30% 29.87 in 10.0 mi SSW 8.1 mph - N/A   Clear
12:55 AM 54.0 °F - 23.0 °F 30% 29.87 in 10.0 mi SSW 8.1 mph - N/A   Clear
1:15 AM 53.6 °F - 23.4 °F 31% 29.87 in 10.0 mi South 6.9 mph - N/A   Clear
1:35 AM 53.8 °F - 23.4 °F 31% 29.87 in 10.0 mi SSW 6.9 mph - N/A   Clear
1:55 AM 54.3 °F - 23.2 °F 30% 29.88 in 10.0 mi SW 5.8 mph - N/A   Clear
2:15 AM 55.2 °F - 23.0 °F 29% 29.88 in 10.0 mi WSW 4.6 mph - N/A   Clear
2:35 AM 54.7 °F - 23.2 °F 29% 29.88 in 10.0 mi SW 4.6 mph - N/A   Clear
2:55 AM 53.6 °F - 23.4 °F 31% 29.87 in 10.0 mi SW 3.5 mph - N/A   Clear
3:15 AM 52.7 °F - 23.4 °F 32% 29.86 in 10.0 mi SW 3.5 mph - N/A   Clear
3:35 AM 52.2 °F - 23.4 °F 33% 29.86 in 10.0 mi Calm Calm - N/A   Clear
3:55 AM 51.4 °F - 23.0 °F 33% 29.86 in 10.0 mi Calm Calm - N/A   Clear
4:15 AM 50.7 °F - 23.0 °F 34% 29.86 in 10.0 mi Calm Calm - N/A   Clear
4:35 AM 50.9 °F - 23.0 °F 34% 29.86 in 10.0 mi Calm Calm - N/A   Clear
4:55 AM 50.2 °F - 23.0 °F 35% 29.86 in 10.0 mi Calm Calm - N/A   Clear
5:15 AM 50.2 °F - 23.2 °F 35% 29.86 in 10.0 mi Calm Calm - N/A   Clear
5:35 AM 49.5 °F - 24.3 °F 37% 29.86 in 10.0 mi Calm Calm - N/A   Clear
5:55 AM 46.9 °F - 26.1 °F 44% 29.85 in 10.0 mi East 5.8 mph - N/A   Clear
6:15 AM 45.1 °F 42.0 °F 27.1 °F 49% 29.85 in 10.0 mi ESE 5.8 mph - N/A   Clear
6:35 AM 44.6 °F 40.2 °F 27.7 °F 52% 29.85 in 10.0 mi ESE 8.1 mph - N/A   Clear
6:55 AM 44.6 °F 40.2 °F 27.9 °F 52% 29.85 in 10.0 mi ESE 8.1 mph - N/A   Clear
7:15 AM 45.7 °F 41.5 °F 27.7 °F 49% 29.85 in 10.0 mi SE 8.1 mph - N/A   Clear
7:35 AM 45.5 °F 40.8 °F 27.9 °F 50% 29.85 in 10.0 mi SE 9.2 mph - N/A   Clear
7:55 AM 45.1 °F 40.8 °F 28.2 °F 52% 29.85 in 10.0 mi SE 8.1 mph - N/A   Clear
8:15 AM 46.2 °F 41.7 °F 28.9 °F 51% 29.85 in 10.0 mi SE 9.2 mph - N/A   Clear
8:35 AM 48.0 °F - 29.1 °F 48% 29.85 in 10.0 mi SE 5.8 mph - N/A   Clear
8:55 AM 49.6 °F - 29.3 °F 46% 29.85 in 10.0 mi SSE 5.8 mph - N/A   Clear
9:15 AM 51.3 °F - 29.3 °F 43% 29.85 in 10.0 mi SSE 6.9 mph - N/A   Clear
9:35 AM 52.5 °F - 29.7 °F 42% 29.85 in 10.0 mi South 9.2 mph - N/A   Clear
9:55 AM 54.5 °F - 29.3 °F 38% 29.84 in 10.0 mi South 9.2 mph - N/A   Clear
10:15 AM 57.2 °F - 29.5 °F 35% 29.84 in 10.0 mi South 9.2 mph - N/A   Clear
10:35 AM 60.6 °F - 29.5 °F 31% 29.83 in 10.0 mi SSW 9.2 mph - N/A   Clear
10:55 AM 63.9 °F - 29.1 °F 27% 29.82 in 10.0 mi SSW 6.9 mph 16.1 mph N/A   Clear
11:15 AM 65.8 °F - 28.6 °F 25% 29.81 in 10.0 mi SSW 11.5 mph 23.0 mph N/A   Clear
11:35 AM 67.5 °F - 28.4 °F 23% 29.80 in 10.0 mi South 13.8 mph 20.7 mph N/A   Clear
11:55 AM 68.5 °F - 27.9 °F 22% 29.79 in 10.0 mi South 13.8 mph 23.0 mph N/A   Clear
12:15 PM 69.3 °F - 28.0 °F 21% 29.79 in 10.0 mi South 10.4 mph - N/A   Clear
12:35 PM 71.8 °F - 29.1 °F 21% 29.80 in 10.0 mi SW 11.5 mph 20.7 mph N/A   Clear
12:55 PM 72.5 °F - 28.4 °F 19% 29.79 in 10.0 mi WSW 11.5 mph 18.4 mph N/A   Clear
1:15 PM 73.4 °F - 28.2 °F 19% 29.78 in 10.0 mi SSW 10.4 mph - N/A   Clear
1:35 PM 73.9 °F - 27.9 °F 18% 29.77 in 10.0 mi WSW 16.1 mph 20.7 mph N/A   Clear
1:55 PM 73.4 °F - 30.7 °F 21% 29.76 in 10.0 mi West 13.8 mph 23.0 mph N/A   Clear
2:15 PM 72.7 °F - 32.5 °F 23% 29.76 in 10.0 mi WSW 15.0 mph 21.9 mph N/A   Clear
2:35 PM 72.9 °F - 33.4 °F 24% 29.76 in 10.0 mi WNW 18.4 mph 26.5 mph N/A   Clear
2:55 PM 70.2 °F - 33.3 °F 26% 29.77 in 10.0 mi WNW 12.7 mph 23.0 mph N/A   Clear
3:15 PM 68.9 °F - 34.0 °F 28% 29.78 in 10.0 mi WNW 16.1 mph 24.2 mph N/A   Clear
3:35 PM 68.4 °F - 33.8 °F 28% 29.78 in 10.0 mi NW 15.0 mph 23.0 mph N/A   Clear
3:55 PM 67.8 °F - 33.4 °F 28% 29.78 in 10.0 mi WNW 16.1 mph 23.0 mph N/A   Clear
4:15 PM 68.0 °F - 33.1 °F 27% 29.79 in 10.0 mi WNW 11.5 mph 23.0 mph N/A   Clear
4:35 PM 68.2 °F - 33.1 °F 27% 29.80 in 10.0 mi West 15.0 mph 23.0 mph N/A   Clear
4:55 PM 67.5 °F - 33.1 °F 28% 29.80 in 10.0 mi WNW 13.8 mph 19.6 mph N/A   Clear
5:15 PM 65.8 °F - 32.0 °F 28% 29.82 in 10.0 mi WNW 13.8 mph 24.2 mph N/A   Clear
5:35 PM 63.7 °F - 31.5 °F 30% 29.83 in 10.0 mi WNW 15.0 mph 21.9 mph N/A   Clear
5:55 PM 62.4 °F - 31.6 °F 31% 29.85 in 10.0 mi NW 18.4 mph 23.0 mph N/A   Clear
6:15 PM 60.6 °F - 32.0 °F 34% 29.86 in 10.0 mi NW 11.5 mph 19.6 mph N/A   Clear
6:35 PM 59.9 °F - 31.5 °F 34% 29.87 in 10.0 mi NW 10.4 mph - N/A   Clear
6:55 PM 59.5 °F - 30.9 °F 34% 29.88 in 10.0 mi NW 13.8 mph 20.7 mph N/A   Clear
7:15 PM 58.6 °F - 31.1 °F 35% 29.88 in 10.0 mi NW 6.9 mph - N/A   Clear
7:35 PM 58.1 °F - 31.1 °F 36% 29.89 in 10.0 mi NW 4.6 mph - N/A   Clear
7:55 PM 57.0 °F - 31.3 °F 38% 29.90 in 10.0 mi WNW 3.5 mph - N/A   Clear
8:15 PM 56.7 °F - 31.5 °F 38% 29.92 in 10.0 mi NW 6.9 mph - N/A   Clear
8:35 PM 56.5 °F - 30.6 °F 37% 29.93 in 10.0 mi NNW 9.2 mph - N/A   Clear
8:55 PM 55.8 °F - 28.9 °F 36% 29.94 in 10.0 mi NW 9.2 mph - N/A   Clear
9:15 PM 55.4 °F - 27.9 °F 35% 29.96 in 10.0 mi NNW 12.7 mph 18.4 mph N/A   Clear
9:35 PM 55.4 °F - 27.1 °F 34% 29.98 in 10.0 mi NNW 10.4 mph 19.6 mph N/A   Clear
9:55 PM 54.7 °F - 27.3 °F 35% 29.99 in 10.0 mi NNW 17.3 mph 20.7 mph N/A   Clear
10:15 PM 54.0 °F - 27.7 °F 36% 30.01 in 10.0 mi NNW 18.4 mph 26.5 mph N/A   Clear
10:35 PM 52.9 °F - 28.4 °F 39% 30.03 in 10.0 mi NNW 13.8 mph 17.3 mph N/A   Clear
10:55 PM 51.6 °F - 28.4 °F 41% 30.04 in 10.0 mi NNW 11.5 mph 19.6 mph N/A   Clear
11:15 PM 50.4 °F - 28.8 °F 43% 30.05 in 10.0 mi NNW 12.7 mph 21.9 mph N/A   Clear
11:35 PM 49.8 °F - 29.1 °F 45% 30.06 in 10.0 mi NNW 9.2 mph 16.1 mph N/A   Clear
11:55 PM 48.7 °F - 30.2 °F 49% 30.07 in 10.0 mi NNW 9.2 mph 20.7 mph N/A   Clear